Location: Suburban Lights Observatory
(43.1572°N, 89.2764°W)
Time: 11:58:28
(UTC-05:00)

Daily predictions for brighter satellites

Satellite Brightness Start Highest point End
(mag) Time Altitude Azimuth Time Altitude Azimuth Time Altitude Azimuth
SL-16 R/B 2.2 18:56:38 10° SSW 19:02:18 77° ESE 19:08:01 10° NNE
Cosmos 1766 3.4 19:01:15 10° S 19:05:08 57° E 19:09:04 10° NNE
Resurs 01 Rocket 2.6 19:03:23 10° SE 19:07:09 28° ENE 19:10:55 10° N
Cosmos 1378 3.1 19:03:27 10° N 19:07:11 67° E 19:10:53 10° SSE
USA 215 4.0 19:09:23 10° ENE 19:15:05 31° SE 19:20:46 10° S
Cosmos 2219 Rocket 4.4 19:10:40 10° WSW 19:15:24 27° NW 19:20:12 10° N
CZ-2C R/B 4.3 19:12:31 10° SSW 19:17:02 36° W 19:21:26 10° NNW
COSMO-SKYMED 1 2.8 19:16:04 10° N 19:20:25 75° WNW 19:24:45 10° SSW
Meteor 1-28 Rocket 3.3 19:18:41 10° NNE 19:22:19 50° E 19:25:56 10° S
Nadezhda 4 Rocket 4.5 19:17:14 10° N 19:23:05 39° ENE 19:28:49 10° SE
Helios 1B rocket 3.2 19:20:03 10° NE 19:23:41 29° E 19:27:17 10° SSE
FREGAT/IRIS 2.8 19:20:55 10° SSE 19:23:55 49° ENE 19:26:56 10° N
Abrixas 3.4 19:22:04 10° SSW 19:24:47 31° SE 19:26:59 14° E
Cosmos 1072 Rocket 4.4 19:23:03 10° S 19:29:09 84° E 19:35:18 10° N
H-2A R/B 4.3 19:28:08 13° ESE 19:30:14 18° ENE 19:32:55 10° NNE
Cosmos 1805 3.4 19:28:30 10° S 19:32:19 52° E 19:36:11 10° NNE
Cosmos 1346 3.7 19:30:15 10° N 19:33:01 34° ENE 19:35:45 10° SE
CZ-4B DEB 4.3 19:31:57 15° ESE 19:33:27 20° ENE 19:35:54 10° NNE
Aureole 2 Rocket 4.2 19:29:57 10° SW 19:34:09 45° WNW 19:38:14 10° N
GPS 2-04 Rocket1 4.3 19:32:30 10° SSW 19:34:52 17° SSE 19:36:40 12° SE
Gbstr 26 Del rocket 4.3 19:33:11 10° S 19:36:48 25° SE 19:39:48 15° E
TELKOM 3 3.5 19:33:53 10° NW 19:36:50 51° NNE 19:38:02 23° E
Cosmos 1943 Rocket 3.8 19:33:43 10° N 19:37:12 16° NE 19:39:37 13° ENE
Cosmos 1766 Rocket 3.5 19:34:07 10° N 19:38:31 86° E 19:42:50 10° S
Cosmos 1076 Rocket 3.7 19:34:12 10° N 19:38:33 78° W 19:42:53 10° S
Cosmos 1953 2.2 19:35:53 10° S 19:39:49 66° E 19:43:47 10° NNE
Meteor 1-29 3.6 19:38:12 10° NNE 19:41:27 34° E 19:44:39 10° SSE
Cosmos 2369 Rocket 2.9 19:36:23 10° N 19:41:29 34° NE 19:45:20 16° ESE
NOAA 12 4.2 19:37:10 10° SSE 19:42:26 84° WSW 19:47:45 10° NNW
Cosmos 1943 4.0 19:39:15 10° SSE 19:43:56 28° ESE 19:48:38 10° NE
Cosmos-2242 2.9 19:43:45 10° S 19:48:05 73° E 19:52:30 10° NNE
Cosmos 1603 3.7 19:44:15 10° SSW 19:49:57 72° ESE 19:55:42 10° NNE
NOSS 3-2 (A) 4.2 19:44:38 10° SW 19:50:39 58° NW 19:57:18 10° NNE
Cosmos 2151 4.2 19:48:14 10° NNE 19:51:34 22° ENE 19:52:06 22° E
OAO 3 Rocket 4.5 19:50:27 10° WSW 19:54:32 29° S 19:57:20 17° SE
Cosmos 1733 4.0 19:51:32 10° SSE 19:54:56 30° E 19:58:20 10° NNE
Cosmos 1452 Rocket 4.1 19:50:25 10° NNW 19:55:36 61° WSW 20:00:45 10° S
Cosmos 1470 3.2 19:53:14 10° SSE 19:56:51 38° E 20:00:28 10° NNE
Cosmos 1674 2.7 19:59:48 10° N 20:03:38 57° E 20:06:20 18° SSE
ASTEX 1 3.5 19:59:09 10° NNE 20:03:56 50° E 20:08:40 10° SSE
Cosmos 2034 Rocket 4.2 19:57:58 10° SSW 20:04:14 78° W 20:10:37 10° N
Cosmos 1500 Rocket 3.5 20:06:41 10° N 20:11:07 68° E 20:14:49 15° SSE
Cosmos 1842 Rocket 3.4 20:08:07 10° S 20:12:23 63° E 20:16:43 10° NNE
Cosmos 1420 Rocket 4.2 20:10:28 10° NNW 20:15:46 73° WSW 20:21:03 10° S
CENTAUR R/B 2.5 20:13:02 10° SSW 20:18:54 57° ESE 20:25:31 10° NE
ATLAS 5 CENTAUR R/B 3.1 20:16:08 10° WSW 20:20:43 41° NW 20:25:44 10° NNE
FengYun 1-2 T 4.4 20:16:58 10° S 20:22:28 73° WSW 20:27:58 10° NNW
ERBS 4.1 20:20:32 10° NNW 20:23:13 22° NNE 20:23:13 22° NNE
Meteor 1-16 Rocket 4.4 20:22:42 33° SE 20:24:18 41° E 20:29:16 10° NNE
ALOS 2.2 20:20:32 12° SSE 20:24:52 86° WSW 20:29:34 10° NNW
Helios 1A 4.0 20:23:12 10° S 20:27:15 47° W 20:31:20 10° NNW
ISS -3.3 20:24:24 10° SW 20:27:23 74° SW 20:27:23 74° SW
Meteor 1-11 4.4 20:25:34 10° N 20:31:12 50° ENE 20:32:39 41° ESE
Cosmos 1627 Rocket 4.4 20:28:24 10° N 20:34:34 64° E 20:37:44 30° SSE
Cosmos 1048 Rocket 4.3 20:30:25 10° SSW 20:35:41 69° WNW 20:40:56 10° NNE
SL-8 R/B 3.6 20:36:32 10° WSW 20:41:19 82° NNW 20:42:21 55° NE
Envisat 3.7 20:42:35 36° NE 20:42:35 36° NE 20:46:34 10° N
Resurs 01 Rocket 3.5 20:39:38 10° SSW 20:43:32 30° W 20:47:27 10° NW
Cosmos 1328 3.9 20:44:11 10° N 20:47:47 72° NNW 20:47:47 72° NNW
Cosmos 1174 3.8 20:43:48 10° SSW 20:48:25 83° W 20:48:25 83° W
CZ-2D R/B 4.1 20:50:59 37° SW 20:52:04 48° W 20:55:52 10° NNW
Cosmos 158 Rocket 3.9 20:49:02 10° SSW 20:53:54 76° WNW 20:58:49 10° NNE
FENGYUN 3A 4.5 20:51:34 10° S 20:56:45 48° W 21:01:59 10° NNW
USA 215 3.3 20:53:07 16° NE 20:58:28 77° NW 21:04:59 10° WSW
H-2A R/B 4.3 21:03:24 31° SW 21:04:17 35° W 21:07:52 10° NNW
GP-B 3.7 21:02:53 10° N 21:07:14 54° W 21:08:05 46° SW
Cosmos 2279 Rocket 3.8 21:09:41 67° SSE 21:10:32 79° E 21:16:46 10° N
ERS-1 Rocket 3.3 21:15:37 59° N 21:15:37 59° N 21:19:42 10° NNW
H-2A R/B 4.3 21:23:11 19° N 21:23:11 19° N 21:24:33 10° N
Cosmos 1943 Rocket 2.2 21:16:08 10° NNW 21:21:09 71° NNW 21:21:09 71° NNW
Gbstr 26 Del rocket 3.9 21:18:34 10° WSW 21:22:25 58° W 21:22:25 58° W
Cosmos 1655 Rocket 4.2 21:17:56 10° NNW 21:24:06 68° W 21:25:31 52° SSW
Cosmos 2369 Rocket 3.3 21:20:21 10° NW 21:25:32 38° WSW 21:27:10 32° SW
CZ-3A R/B 4.4 20:51:53 10° SSW 21:26:28 56° SE 21:27:52 53° ESE
Cosmos 1943 4.2 21:22:23 10° SW 21:27:44 44° WNW 21:33:08 10° NNE
Cosmos 2026 Rocket 4.5 21:23:42 10° NNW 21:29:38 55° W 21:31:32 40° SW
Cosmos 1428 Rocket 4.5 21:26:06 10° N 21:32:19 80° W 21:32:19 80° W
BREEZE-M DEB (TANK) 4.4 21:52:07 10° WNW 21:57:17 36° W 21:57:17 36° W
CENTAUR R/B 4.0 22:04:12 10° WSW 22:09:55 35° NW 22:16:19 10° NNE
